{"data":{"norad_id":67298,"intl_designator":"2025-313BC","name":"TRISAT-2 (RUVDSSAT1)","alt_names":[],"object_type":"PAYLOAD","status":"ACTIVE","operator":null,"country":"CIS","launch_date":"2025-12-28","launch_site_code":"VOSTO","launch_vehicle":null,"mission":null,"orbit_class":"UNKNOWN","rcs_meters":null,"size_class":null,"mass_kg":null,"dimensions":null,"purposes":[],"wikipedia_slug":null,"has_3d_model":false,"image_url":null,"decayed_at":null,"tle_current":{"epoch":"2026-08-19T19:46:40.289952Z","epoch_age_seconds":2839936,"freshness":"OLD","line1":"1 67298U 25313BC  26231.82407743  .10780010  24464-5  35699-2 0  9991","line2":"2 67298  97.3530 312.4043 0017357 280.3255  79.6080 16.25462905 33226","mean_motion":16.25462905,"eccentricity":0.0017357,"inclination_deg":97.353,"raan_deg":312.4043,"arg_perigee_deg":280.3255,"mean_anomaly_deg":79.608,"bstar":0.0035699,"rev_number":3322,"period_min":88.590148416829,"perigee_km":193.33516816071,"apogee_km":216.18704064032,"semimajor_km":6582.8981044005,"source":"CELESTRAK","updated_at":"2026-08-22T09:00:22.928407Z"}}}